This is the latest recevied weather packets stored in our database for station/object HG5CJW-10. If no packets are shown the sender has not sent any weather packets the latest 10 day(s).
| Time | Temp. | Humidity | Pressure | Rain* | Wind** | Luminosity | Snow |
|---|---|---|---|---|---|---|---|
| 1777454351 | 13.33° C | 38% | 1040.7 hPa | - | - | - | - |
| 1777453451 | 12.78° C | 38% | 1040.6 hPa | - | - | - | - |
| 1777449845 | 11.67° C | 40% | 1040.7 hPa | - | - | - | - |
| 1777448945 | 11.11° C | 40% | 1040.7 hPa | - | - | - | - |
| 1777448045 | 11.11° C | 40% | 1040.7 hPa | - | - | - | - |
| 1777447145 | 10.56° C | 41% | 1040.4 hPa | - | - | - | - |
| 1777446245 | 10.56° C | 41% | 1040.5 hPa | - | - | - | - |
| 1777445345 | 10° C | 42% | 1040.5 hPa | - | - | - | - |
| 1777444445 | 10° C | 43% | 1040.5 hPa | - | - | - | - |
| 1777443545 | 10° C | 42% | 1040.4 hPa | - | - | - | - |
| 1777442644 | 10° C | 43% | 1040.5 hPa | - | - | - | - |
| 1777441744 | 10° C | 42% | 1040.3 hPa | - | - | - | - |
| 1777440844 | 10° C | 42% | 1040.2 hPa | - | - | - | - |
| 1777439944 | 10° C | 42% | 1040.1 hPa | - | - | - | - |
| 1777436340 | 10° C | 43% | 1039.6 hPa | - | - | - | - |
| 1777433638 | 10.56° C | 43% | 1039.6 hPa | - | - | - | - |
| 1777432738 | 10.56° C | 43% | 1039.5 hPa | - | - | - | - |
| 1777431838 | 10.56° C | 43% | 1039.5 hPa | - | - | - | - |
| 1777430938 | 10.56° C | 43% | 1039.6 hPa | - | - | - | - |
| 1777429138 | 10.56° C | 43% | 1038.8 hPa | - | - | - | - |
| 1777428238 | 11.11° C | 42% | 1039.5 hPa | - | - | - | - |
| 1777427338 | 11.11° C | 43% | 1039.5 hPa | - | - | - | - |
| 1777426438 | 11.67° C | 42% | 1039.3 hPa | - | - | - | - |
| 1777425538 | 11.67° C | 42% | 1039.3 hPa | - | - | - | - |
| 1777421932 | 12.22° C | 42% | 1039.5 hPa | - | - | - | - |
* Rain since midnight (hover to see other rain measurements)
** Current wind speed in m/s (hover to see current wind gust speed)